Hourly Weather Dzhusaly

Today, 15 May, Saturday

Time Temperature Precipitation Wind Pressure Humidity
00:00 +24°C° 0 mm 6 mps 756 mmHg 25%
01:00 +23°C° 0 mm 6 mps 756 mmHg 25%
02:00 +22°C° 0 mm 5 mps 756 mmHg 26%
03:00 +20°C° 0 mm 5 mps 756 mmHg 27%
04:00 +19°C° 0 mm 5 mps 756 mmHg 28%
05:00 +20°C° 0 mm 5 mps 757 mmHg 27%
06:00 +21°C° 0 mm 6 mps 757 mmHg 27%
07:00 +22°C° 0 mm 6 mps 757 mmHg 26%
08:00 +23°C° 0 mm 6 mps 757 mmHg 24%
09:00 +26°C° 0 mm 7 mps 757 mmHg 22%
10:00 +27°C° 0 mm 7 mps 757 mmHg 20%
11:00 +28°C° 0 mm 7 mps 757 mmHg 18%
12:00 +29°C° 0 mm 8 mps 757 mmHg 16%
13:00 +31°C° 0 mm 8 mps 756 mmHg 14%
14:00 +31°C° 0 mm 8 mps 756 mmHg 14%
15:00 +31°C° 0 mm 8 mps 756 mmHg 13%
16:00 +32°C° 0 mm 8 mps 755 mmHg 13%
17:00 +31°C° 0 mm 8 mps 755 mmHg 14%
18:00 +29°C° 0 mm 7 mps 755 mmHg 16%
19:00 +28°C° 0 mm 6 mps 756 mmHg 17%
20:00 +27°C° 0 mm 6 mps 756 mmHg 19%
21:00 +26°C° 0 mm 5 mps 756 mmHg 20%
22:00 +25°C° 0 mm 4 mps 756 mmHg 22%
23:00 +23°C° 0 mm 4 mps 756 mmHg 24%

Tomorrow, 16 May, Sunday

Time Temperature Precipitation Wind Pressure Humidity
00:00 +22°C° 0 mm 4 mps 755 mmHg 25%
01:00 +21°C° 0 mm 4 mps 755 mmHg 27%
02:00 +21°C° 0 mm 4 mps 755 mmHg 28%
03:00 +20°C° 0 mm 4 mps 756 mmHg 30%
04:00 +19°C° 0 mm 4 mps 756 mmHg 31%
05:00 +21°C° 0 mm 5 mps 756 mmHg 28%
06:00 +22°C° 0 mm 5 mps 756 mmHg 26%
07:00 +23°C° 0 mm 6 mps 756 mmHg 23%
08:00 +26°C° 0 mm 6 mps 756 mmHg 20%
09:00 +28°C° 0 mm 6 mps 756 mmHg 18%
10:00 +30°C° 0 mm 7 mps 756 mmHg 15%
11:00 +30°C° 0 mm 7 mps 756 mmHg 14%
12:00 +32°C° 0 mm 7 mps 755 mmHg 13%
13:00 +33°C° 0 mm 7 mps 755 mmHg 13%
14:00 +34°C° 0 mm 8 mps 755 mmHg 12%
15:00 +34°C° 0 mm 8 mps 754 mmHg 12%
16:00 +34°C° 0 mm 8 mps 754 mmHg 12%
17:00 +33°C° 0 mm 7 mps 754 mmHg 13%
18:00 +32°C° 0 mm 6 mps 754 mmHg 14%
19:00 +30°C° 0 mm 5 mps 754 mmHg 15%
20:00 +29°C° 0 mm 5 mps 754 mmHg 16%
21:00 +28°C° 0 mm 4 mps 754 mmHg 18%
22:00 +27°C° 0 mm 4 mps 754 mmHg 20%
23:00 +26°C° 0 mm 4 mps 754 mmHg 21%

Day after tomorrow, 17 May, Monday

Time Temperature Precipitation Wind Pressure Humidity
00:00 +25°C° 0 mm 4 mps 754 mmHg 23%
01:00 +25°C° 0 mm 4 mps 754 mmHg 24%
02:00 +23°C° 0 mm 4 mps 754 mmHg 25%
03:00 +22°C° 0 mm 4 mps 754 mmHg 27%
04:00 +22°C° 0 mm 5 mps 754 mmHg 28%
05:00 +23°C° 0 mm 5 mps 754 mmHg 26%
06:00 +26°C° 0 mm 6 mps 755 mmHg 25%
07:00 +27°C° 0 mm 6 mps 755 mmHg 24%
08:00 +29°C° 0 mm 6 mps 755 mmHg 23%
09:00 +30°C° 0 mm 7 mps 755 mmHg 21%
10:00 +33°C° 0 mm 7 mps 754 mmHg 20%
11:00 +34°C° 0 mm 7 mps 754 mmHg 19%
12:00 +34°C° 0 mm 7 mps 754 mmHg 19%
13:00 +35°C° 0 mm 7 mps 753 mmHg 19%
14:00 +35°C° 0 mm 7 mps 753 mmHg 18%
15:00 +35°C° 0 mm 6 mps 752 mmHg 18%
16:00 +36°C° 0 mm 6 mps 752 mmHg 17%
17:00 +35°C° 0 mm 5 mps 752 mmHg 18%
18:00 +34°C° 0 mm 5 mps 752 mmHg 19%
19:00 +33°C° 0 mm 4 mps 751 mmHg 20%
20:00 +32°C° 0 mm 4 mps 751 mmHg 21%
21:00 +30°C° 0 mm 4 mps 751 mmHg 22%
22:00 +29°C° 0 mm 3 mps 751 mmHg 23%
23:00 +28°C° 0 mm 4 mps 751 mmHg 26%

18 May, Tuesday

Time Temperature Precipitation Wind Pressure Humidity
00:00 +27°C° 0 mm 5 mps 751 mmHg 29%
01:00 +26°C° 0 mm 6 mps 751 mmHg 32%
02:00 +25°C° 0 mm 5 mps 751 mmHg 36%
03:00 +25°C° 0 mm 5 mps 751 mmHg 39%
04:00 +23°C° 0 mm 5 mps 751 mmHg 42%
05:00 +26°C° 0 mm 5 mps 751 mmHg 38%
06:00 +27°C° 0 mm 5 mps 751 mmHg 33%
07:00 +29°C° 0 mm 5 mps 751 mmHg 29%
08:00 +30°C° 0 mm 5 mps 751 mmHg 26%
09:00 +33°C° 0 mm 5 mps 751 mmHg 22%
10:00 +35°C° 0 mm 5 mps 750 mmHg 19%
11:00 +36°C° 0 mm 5 mps 750 mmHg 18%
12:00 +36°C° 0 mm 5 mps 750 mmHg 17%
13:00 +37°C° 0 mm 5 mps 749 mmHg 15%
14:00 +37°C° 0 mm 5 mps 749 mmHg 14%
15:00 +38°C° 0 mm 6 mps 749 mmHg 14%
16:00 +38°C° 0 mm 6 mps 748 mmHg 13%
17:00 +36°C° 0 mm 5 mps 748 mmHg 14%
18:00 +35°C° 0 mm 5 mps 748 mmHg 15%
19:00 +34°C° 0 mm 4 mps 748 mmHg 15%
20:00 +33°C° 0 mm 4 mps 748 mmHg 17%
21:00 +32°C° 0 mm 4 mps 748 mmHg 19%
22:00 +30°C° 0 mm 4 mps 748 mmHg 21%
23:00 +29°C° 0 mm 4 mps 748 mmHg 22%

19 May, Wednesday

Time Temperature Precipitation Wind Pressure Humidity
00:00 +28°C° 0 mm 4 mps 748 mmHg 24%
01:00 +28°C° 0 mm 4 mps 748 mmHg 25%
02:00 +27°C° 0 mm 4 mps 748 mmHg 26%
03:00 +26°C° 0 mm 4 mps 748 mmHg 27%
04:00 +25°C° 0 mm 4 mps 748 mmHg 28%
05:00 +27°C° 0 mm 5 mps 749 mmHg 26%
06:00 +28°C° 0 mm 5 mps 749 mmHg 24%
07:00 +29°C° 0 mm 5 mps 749 mmHg 22%
08:00 +32°C° 0 mm 5 mps 749 mmHg 20%
09:00 +34°C° 0 mm 5 mps 749 mmHg 18%
10:00 +36°C° 0 mm 5 mps 749 mmHg 17%
11:00 +37°C° 0 mm 5 mps 749 mmHg 16%
12:00 +37°C° 0 mm 5 mps 749 mmHg 15%
13:00 +39°C° 0 mm 5 mps 749 mmHg 13%
14:00 +38°C° 0 mm 4 mps 748 mmHg 13%
15:00 +38°C° 0 mm 4 mps 748 mmHg 12%
16:00 +38°C° 0 mm 4 mps 748 mmHg 11%
17:00 +37°C° 0 mm 4 mps 748 mmHg 12%
18:00 +36°C° 0 mm 4 mps 748 mmHg 13%
19:00 +35°C° 0 mm 4 mps 748 mmHg 15%
20:00 +33°C° 0 mm 4 mps 749 mmHg 21%
21:00 +30°C° 0 mm 5 mps 749 mmHg 27%
22:00 +28°C° 0 mm 5 mps 750 mmHg 33%
23:00 +28°C° 0 mm 5 mps 750 mmHg 34%

20 May, Thursday

Time Temperature Precipitation Wind Pressure Humidity
00:00 +27°C° 0 mm 5 mps 750 mmHg 35%
01:00 +26°C° 0 mm 5 mps 751 mmHg 37%
02:00 +26°C° 0 mm 5 mps 751 mmHg 40%
03:00 +25°C° 0 mm 5 mps 751 mmHg 44%
04:00 +23°C° 0 mm 5 mps 751 mmHg 48%
05:00 +25°C° 0 mm 5 mps 751 mmHg 44%
06:00 +26°C° 0 mm 6 mps 752 mmHg 40%
07:00 +28°C° 0 mm 6 mps 752 mmHg 36%
08:00 +29°C° 0 mm 6 mps 752 mmHg 32%
09:00 +32°C° 0 mm 6 mps 752 mmHg 27%
10:00 +34°C° 0 mm 5 mps 752 mmHg 22%
11:00 +35°C° 0 mm 6 mps 752 mmHg 20%
12:00 +36°C° 0 mm 6 mps 752 mmHg 19%
13:00 +38°C° 0 mm 6 mps 752 mmHg 17%
14:00 +36°C° 0 mm 6 mps 752 mmHg 17%
15:00 +36°C° 0 mm 7 mps 752 mmHg 17%
16:00 +36°C° 0 mm 7 mps 751 mmHg 17%
17:00 +35°C° 0 mm 7 mps 751 mmHg 18%
18:00 +35°C° 0 mm 7 mps 751 mmHg 19%
19:00 +34°C° 0 mm 7 mps 751 mmHg 20%
20:00 +33°C° 0 mm 7 mps 752 mmHg 21%
21:00 +30°C° 0 mm 7 mps 752 mmHg 23%
22:00 +29°C° 0 mm 8 mps 752 mmHg 24%
23:00 +28°C° 0 mm 8 mps 752 mmHg 24%
Show more

We Need Your Consent

Meteoprog and our Service Providers may store and access personal data such as cookies, device identifiers or other similar technologies on your device and process such data to personalise content and ads, as well as provide social media features and to analyse the traffic.

  • Store and/or access information on your device

    Cookies, device identifiers or other information can be stored or accessed on your device for the purposes indicated above.

  • Personalised ads and content, ad and content measurement, audience insights, and products development

    Ads and content can be personalised based on a profile. More data can be added to better personalise ads and content. Ad and content performance can be measured. Insights about the audience who saw the ads and content can be derived. Such data can be used to develop or improve user’s experience, systems and software.

By clicking ‘I Agree’ you will allow the use of indicated cookies, device identifiers, web beacons or other similar technologies. Your settings can be changed in the browser on your device.

For certain purposes, legitimate interests may be relied on, rather than consent. You can read more about this in our Privacy and Cookie Policy.